Location: Mountain View
(37.3861°N, 122.0839°W)
Time: 20:16:59
(UTC-07:00)

Envisat - Pass Details

Date: 19 May 2026
Orbit: 761 x 763 km, 98.4° (Epoch: 9 June)

Event Time Altitude Azimuth Distance (km) Brightness Sun altitude
Rises 02:44:01 0° 28° (NNE) 3,228 7.5 -28.2°
Reaches altitude 10° 02:46:49 10° 43° (NE) 2,297 6.4 -28.0°
Maximum altitude 02:50:43 22° 94° (E) 1,602 4.8 -27.6°
Enters shadow 02:52:07 20° 118° (ESE) 1,704 4.8 -27.5°
